Year,Month,Day,Hour,Minute,Value (Times are PST for temperature in C)
2017,05,29,00,00,17.30
2017,05,29,00,01,17.30
2017,05,29,00,02,17.20
2017,05,29,00,03,17.20
2017,05,29,00,04,17.20
2017,05,29,00,05,17.10
2017,05,29,00,06,17.10
2017,05,29,00,07,17.10
2017,05,29,00,08,17.10
2017,05,29,00,09,17.00
2017,05,29,00,10,16.90
2017,05,29,00,11,16.90
2017,05,29,00,12,16.90
2017,05,29,00,13,16.80
2017,05,29,00,14,16.80
2017,05,29,00,15,16.80
2017,05,29,00,16,16.70
2017,05,29,00,17,16.70
2017,05,29,00,18,16.60
2017,05,29,00,19,16.60
2017,05,29,00,20,16.50
2017,05,29,00,21,16.50
2017,05,29,00,22,16.40
2017,05,29,00,23,16.40
2017,05,29,00,24,16.40
2017,05,29,00,25,16.30
2017,05,29,00,26,16.30
2017,05,29,00,27,16.30
2017,05,29,00,28,16.30
2017,05,29,00,29,16.30
2017,05,29,00,30,16.40
2017,05,29,00,31,16.40
2017,05,29,00,32,16.40
2017,05,29,00,33,16.40
2017,05,29,00,34,16.50
2017,05,29,00,35,16.60
2017,05,29,00,36,16.60
2017,05,29,00,37,16.60
2017,05,29,00,38,16.70
2017,05,29,00,39,16.70
2017,05,29,00,40,16.70
2017,05,29,00,41,16.70
2017,05,29,00,42,16.70
2017,05,29,00,43,16.70
2017,05,29,00,44,16.70
2017,05,29,00,45,16.70
2017,05,29,00,46,16.70
2017,05,29,00,47,16.70
2017,05,29,00,48,16.70
2017,05,29,00,49,16.70
2017,05,29,00,50,16.70
2017,05,29,00,51,16.70
2017,05,29,00,52,16.70
2017,05,29,00,53,16.60
2017,05,29,00,54,16.60
2017,05,29,00,55,16.50
2017,05,29,00,56,16.50
2017,05,29,00,57,16.50
2017,05,29,00,58,16.40
2017,05,29,00,59,16.40
2017,05,29,01,00,16.30
2017,05,29,01,01,16.30
2017,05,29,01,02,16.40
2017,05,29,01,03,16.40
2017,05,29,01,04,16.40
2017,05,29,01,05,16.40
2017,05,29,01,06,16.50
2017,05,29,01,07,16.50
2017,05,29,01,08,16.50
2017,05,29,01,09,16.50
2017,05,29,01,10,16.50
2017,05,29,01,11,16.60
2017,05,29,01,12,16.60
2017,05,29,01,13,16.60
2017,05,29,01,14,16.60
2017,05,29,01,15,16.60
2017,05,29,01,16,16.60
2017,05,29,01,17,16.60
2017,05,29,01,18,16.60
2017,05,29,01,19,16.50
2017,05,29,01,20,16.50
2017,05,29,01,21,16.40
2017,05,29,01,22,16.40
2017,05,29,01,23,16.40
2017,05,29,01,24,16.30
2017,05,29,01,25,16.30
2017,05,29,01,26,16.30
2017,05,29,01,27,16.20
2017,05,29,01,28,16.20
2017,05,29,01,29,16.20
2017,05,29,01,30,16.20
2017,05,29,01,31,16.10
2017,05,29,01,32,16.10
2017,05,29,01,33,16.10
2017,05,29,01,34,16.10
2017,05,29,01,35,16.10
2017,05,29,01,36,16.00
2017,05,29,01,37,16.00
2017,05,29,01,38,16.00
2017,05,29,01,39,15.90
2017,05,29,01,40,15.90
2017,05,29,01,41,15.90
2017,05,29,01,42,15.90
2017,05,29,01,43,15.90
2017,05,29,01,44,15.80
2017,05,29,01,45,15.80
2017,05,29,01,46,15.80
2017,05,29,01,47,15.80
2017,05,29,01,48,15.80
2017,05,29,01,49,15.80
2017,05,29,01,50,15.90
2017,05,29,01,51,15.90
2017,05,29,01,52,15.90
2017,05,29,01,53,15.90
2017,05,29,01,54,15.90
2017,05,29,01,55,15.90
2017,05,29,01,56,15.90
2017,05,29,01,57,16.00
2017,05,29,01,58,16.00
2017,05,29,01,59,16.00
2017,05,29,02,00,16.00
2017,05,29,02,01,16.00
2017,05,29,02,02,16.00
2017,05,29,02,03,15.90
2017,05,29,02,04,15.90
2017,05,29,02,05,15.90
2017,05,29,02,06,15.90
2017,05,29,02,07,15.90
2017,05,29,02,08,15.90
2017,05,29,02,09,15.80
2017,05,29,02,10,15.80
2017,05,29,02,11,15.80
2017,05,29,02,12,15.80
2017,05,29,02,13,15.70
2017,05,29,02,14,15.70
2017,05,29,02,15,15.70
2017,05,29,02,16,15.70
2017,05,29,02,17,15.70
2017,05,29,02,18,15.60
2017,05,29,02,19,15.60
2017,05,29,02,20,15.60
2017,05,29,02,21,15.60
2017,05,29,02,22,15.60
2017,05,29,02,23,15.60
2017,05,29,02,24,15.60
2017,05,29,02,25,15.70
2017,05,29,02,26,15.70
2017,05,29,02,27,15.70
2017,05,29,02,28,15.70
2017,05,29,02,29,15.70
2017,05,29,02,30,15.60
2017,05,29,02,31,15.60
2017,05,29,02,32,15.60
2017,05,29,02,33,15.60
2017,05,29,02,34,15.60
2017,05,29,02,35,15.60
2017,05,29,02,36,15.50
2017,05,29,02,37,15.50
2017,05,29,02,38,15.50
2017,05,29,02,39,15.40
2017,05,29,02,40,15.40
2017,05,29,02,41,15.40
2017,05,29,02,42,15.30
2017,05,29,02,43,15.30
2017,05,29,02,44,15.30
2017,05,29,02,45,15.30
2017,05,29,02,46,15.30
2017,05,29,02,47,15.30
2017,05,29,02,48,15.30
2017,05,29,02,49,15.30
2017,05,29,02,50,15.30
2017,05,29,02,51,15.20
2017,05,29,02,52,15.20
2017,05,29,02,53,15.20
2017,05,29,02,54,15.10
2017,05,29,02,55,15.10
2017,05,29,02,56,15.10
2017,05,29,02,57,15.10
2017,05,29,02,58,15.00
2017,05,29,02,59,15.00
2017,05,29,03,00,15.00
2017,05,29,03,01,15.00
2017,05,29,03,02,15.00
2017,05,29,03,03,15.00
2017,05,29,03,04,15.00
2017,05,29,03,05,15.00
2017,05,29,03,06,15.00
2017,05,29,03,07,15.00
2017,05,29,03,08,15.00
2017,05,29,03,09,14.90
2017,05,29,03,10,14.90
2017,05,29,03,11,14.90
2017,05,29,03,12,15.00
2017,05,29,03,13,15.00
2017,05,29,03,14,15.00
2017,05,29,03,15,15.00
2017,05,29,03,16,15.00
2017,05,29,03,17,15.00
2017,05,29,03,18,15.00
2017,05,29,03,19,15.00
2017,05,29,03,20,15.00
2017,05,29,03,21,15.00
2017,05,29,03,22,14.90
2017,05,29,03,23,14.80
2017,05,29,03,24,14.70
2017,05,29,03,25,14.70
2017,05,29,03,26,14.70
2017,05,29,03,27,14.60
2017,05,29,03,28,14.60
2017,05,29,03,29,14.60
2017,05,29,03,30,14.50
2017,05,29,03,31,14.50
2017,05,29,03,32,14.50
2017,05,29,03,33,14.40
2017,05,29,03,34,14.40
2017,05,29,03,35,14.40
2017,05,29,03,36,14.40
2017,05,29,03,37,14.30
2017,05,29,03,38,14.30
2017,05,29,03,39,14.30
2017,05,29,03,40,14.20
2017,05,29,03,41,14.20
2017,05,29,03,42,14.20
2017,05,29,03,43,14.10
2017,05,29,03,44,14.10
2017,05,29,03,45,14.00
2017,05,29,03,46,14.00
2017,05,29,03,47,13.90
2017,05,29,03,48,13.90
2017,05,29,03,49,13.90
2017,05,29,03,50,13.80
2017,05,29,03,51,13.80
2017,05,29,03,52,13.70
2017,05,29,03,53,13.70
2017,05,29,03,54,13.60
2017,05,29,03,55,13.60
2017,05,29,03,56,13.50
2017,05,29,03,57,13.50
2017,05,29,03,58,13.40
2017,05,29,03,59,13.40
2017,05,29,04,00,13.30
2017,05,29,04,01,13.30
2017,05,29,04,02,13.30
2017,05,29,04,03,13.30
2017,05,29,04,04,13.20
2017,05,29,04,05,13.20
2017,05,29,04,06,13.10
2017,05,29,04,07,13.10
2017,05,29,04,08,13.10
2017,05,29,04,09,13.00
2017,05,29,04,10,13.00
2017,05,29,04,11,12.90
2017,05,29,04,12,12.90
2017,05,29,04,13,12.80
2017,05,29,04,14,12.80
2017,05,29,04,15,12.80
2017,05,29,04,16,12.70
2017,05,29,04,17,12.70
2017,05,29,04,18,12.60
2017,05,29,04,19,12.60
2017,05,29,04,20,12.60
2017,05,29,04,21,12.50
2017,05,29,04,22,12.40
2017,05,29,04,23,12.40
2017,05,29,04,24,12.40
2017,05,29,04,25,12.40
2017,05,29,04,26,12.30
2017,05,29,04,27,12.30
2017,05,29,04,28,12.30
2017,05,29,04,29,12.30
2017,05,29,04,30,12.30
2017,05,29,04,31,12.30
2017,05,29,04,32,12.30
2017,05,29,04,33,12.30
2017,05,29,04,34,12.20
2017,05,29,04,35,12.20
2017,05,29,04,36,12.20
2017,05,29,04,37,12.10
2017,05,29,04,38,12.10
2017,05,29,04,39,12.10
2017,05,29,04,40,12.10
2017,05,29,04,41,12.10
2017,05,29,04,42,12.10
2017,05,29,04,43,12.10
2017,05,29,04,44,12.10
2017,05,29,04,45,12.10
2017,05,29,04,46,12.10
2017,05,29,04,47,12.10
2017,05,29,04,48,12.10
2017,05,29,04,49,12.10
2017,05,29,04,50,12.10
2017,05,29,04,51,12.10
2017,05,29,04,52,12.00
2017,05,29,04,53,12.00
2017,05,29,04,54,12.00
2017,05,29,04,55,12.00
2017,05,29,04,56,11.90
2017,05,29,04,57,11.90
2017,05,29,04,58,12.00
2017,05,29,04,59,12.00
2017,05,29,05,00,12.00
2017,05,29,05,01,12.10
2017,05,29,05,02,12.10
2017,05,29,05,03,12.10
2017,05,29,05,04,12.20
2017,05,29,05,05,12.20
2017,05,29,05,06,12.20
2017,05,29,05,07,12.20
2017,05,29,05,08,12.20
2017,05,29,05,09,12.20
2017,05,29,05,10,12.20
2017,05,29,05,11,12.20
2017,05,29,05,12,12.20
2017,05,29,05,13,12.20
2017,05,29,05,14,12.20
2017,05,29,05,15,12.10
2017,05,29,05,16,12.10
2017,05,29,05,17,12.10
2017,05,29,05,18,12.00
2017,05,29,05,19,11.90
2017,05,29,05,20,11.90
2017,05,29,05,21,11.90
2017,05,29,05,22,11.90
2017,05,29,05,23,11.80
2017,05,29,05,24,11.80
2017,05,29,05,25,11.70
2017,05,29,05,26,11.70
2017,05,29,05,27,11.70
2017,05,29,05,28,11.70
2017,05,29,05,29,11.70
2017,05,29,05,30,11.70
2017,05,29,05,31,11.70
2017,05,29,05,32,11.70
2017,05,29,05,33,11.60
2017,05,29,05,34,11.60
2017,05,29,05,35,11.60
2017,05,29,05,36,11.60
2017,05,29,05,37,11.60
2017,05,29,05,38,11.50
2017,05,29,05,39,11.50
2017,05,29,05,40,11.50
2017,05,29,05,41,11.50
2017,05,29,05,42,11.50
2017,05,29,05,43,11.50
2017,05,29,05,44,11.60
2017,05,29,05,45,11.60
2017,05,29,05,46,11.60
2017,05,29,05,47,11.60
2017,05,29,05,48,11.60
2017,05,29,05,49,11.70
2017,05,29,05,50,11.70
2017,05,29,05,51,11.70
2017,05,29,05,52,11.70
2017,05,29,05,53,11.70
2017,05,29,05,54,11.70
2017,05,29,05,55,11.70
2017,05,29,05,56,11.70
2017,05,29,05,57,11.80
2017,05,29,05,58,11.80
2017,05,29,05,59,11.80
2017,05,29,06,00,11.80
2017,05,29,06,01,11.80
2017,05,29,06,02,11.80
2017,05,29,06,03,11.90
2017,05,29,06,04,11.90
2017,05,29,06,05,11.90
2017,05,29,06,06,11.90
2017,05,29,06,07,11.90
2017,05,29,06,08,11.90
2017,05,29,06,09,12.00
2017,05,29,06,10,12.10
2017,05,29,06,11,12.10
2017,05,29,06,12,12.10
2017,05,29,06,13,12.10
2017,05,29,06,14,12.10
2017,05,29,06,15,12.20
2017,05,29,06,16,12.20
2017,05,29,06,17,12.20
2017,05,29,06,18,12.20
2017,05,29,06,19,12.20
2017,05,29,06,20,12.20
2017,05,29,06,21,12.20
2017,05,29,06,22,12.20
2017,05,29,06,23,12.20
2017,05,29,06,24,12.20
2017,05,29,06,25,12.20
2017,05,29,06,26,12.20
2017,05,29,06,27,12.30
2017,05,29,06,28,12.40
2017,05,29,06,29,12.40
2017,05,29,06,30,12.50
2017,05,29,06,31,12.70
2017,05,29,06,32,12.70
2017,05,29,06,33,12.80
2017,05,29,06,34,12.80
2017,05,29,06,35,12.70
2017,05,29,06,36,12.70
2017,05,29,06,37,12.70
2017,05,29,06,38,12.70
2017,05,29,06,39,12.80
2017,05,29,06,40,12.90
2017,05,29,06,41,12.90
2017,05,29,06,42,13.00
2017,05,29,06,43,13.10
2017,05,29,06,44,13.20
2017,05,29,06,45,13.20
2017,05,29,06,46,13.40
2017,05,29,06,47,13.40
2017,05,29,06,48,13.60
2017,05,29,06,49,13.60
2017,05,29,06,50,13.70
2017,05,29,06,51,13.80
2017,05,29,06,52,13.90
2017,05,29,06,53,14.00
2017,05,29,06,54,14.10
2017,05,29,06,55,14.20
2017,05,29,06,56,14.30
2017,05,29,06,57,14.30
2017,05,29,06,58,14.30
2017,05,29,06,59,14.40
2017,05,29,07,00,14.40
2017,05,29,07,01,14.50
2017,05,29,07,02,14.50
2017,05,29,07,03,14.50
2017,05,29,07,04,14.60
2017,05,29,07,05,14.60
2017,05,29,07,06,14.60
2017,05,29,07,07,14.70
2017,05,29,07,08,14.70
2017,05,29,07,09,14.90
2017,05,29,07,10,15.00
2017,05,29,07,11,15.00
2017,05,29,07,12,15.10
2017,05,29,07,13,15.30
2017,05,29,07,14,15.40
2017,05,29,07,15,15.60
2017,05,29,07,16,15.70
2017,05,29,07,17,15.70
2017,05,29,07,18,15.90
2017,05,29,07,19,16.00
2017,05,29,07,20,16.10
2017,05,29,07,21,16.20
2017,05,29,07,22,16.30
2017,05,29,07,23,16.40
2017,05,29,07,24,16.40
2017,05,29,07,25,16.50
2017,05,29,07,26,16.60
2017,05,29,07,27,16.60
2017,05,29,07,28,16.70
2017,05,29,07,29,16.70
2017,05,29,07,30,16.70
2017,05,29,07,31,16.70
2017,05,29,07,32,16.80
2017,05,29,07,33,16.80
2017,05,29,07,34,16.80
2017,05,29,07,35,16.80
2017,05,29,07,36,16.80
2017,05,29,07,37,16.90
2017,05,29,07,38,16.90
2017,05,29,07,39,16.90
2017,05,29,07,40,16.90
2017,05,29,07,41,17.00
2017,05,29,07,42,17.00
2017,05,29,07,43,17.10
2017,05,29,07,44,17.10
2017,05,29,07,45,17.10
2017,05,29,07,46,17.10
2017,05,29,07,47,17.00
2017,05,29,07,48,17.00
2017,05,29,07,49,16.90
2017,05,29,07,50,16.90
2017,05,29,07,51,17.00
2017,05,29,07,52,17.10
2017,05,29,07,53,17.10
2017,05,29,07,54,17.20
2017,05,29,07,55,17.30
2017,05,29,07,56,17.30
2017,05,29,07,57,17.30
2017,05,29,07,58,17.40
2017,05,29,07,59,17.50
2017,05,29,08,00,17.60
2017,05,29,08,01,17.70
2017,05,29,08,02,17.70
2017,05,29,08,03,17.60
2017,05,29,08,04,17.50
2017,05,29,08,05,17.50
2017,05,29,08,06,17.40
2017,05,29,08,07,17.30
2017,05,29,08,08,17.30
2017,05,29,08,09,17.10
2017,05,29,08,10,17.10
2017,05,29,08,11,17.00
2017,05,29,08,12,16.90
2017,05,29,08,13,16.90
2017,05,29,08,14,17.00
2017,05,29,08,15,17.00
2017,05,29,08,16,17.10
2017,05,29,08,17,17.10
2017,05,29,08,18,17.20
2017,05,29,08,19,17.30
2017,05,29,08,20,17.40
2017,05,29,08,21,17.50
2017,05,29,08,22,17.50
2017,05,29,08,23,17.40
2017,05,29,08,24,17.40
2017,05,29,08,25,17.20
2017,05,29,08,26,17.10
2017,05,29,08,27,17.10
2017,05,29,08,28,17.10
2017,05,29,08,29,17.10
2017,05,29,08,30,17.10
2017,05,29,08,31,17.20
2017,05,29,08,32,17.30
2017,05,29,08,33,17.40
2017,05,29,08,34,17.40
2017,05,29,08,35,17.50
2017,05,29,08,36,17.60
2017,05,29,08,37,17.60
2017,05,29,08,38,17.60
2017,05,29,08,39,17.60
2017,05,29,08,40,17.60
2017,05,29,08,41,17.50
2017,05,29,08,42,17.40
2017,05,29,08,43,17.30
2017,05,29,08,44,17.30
2017,05,29,08,45,17.20
2017,05,29,08,46,17.20
2017,05,29,08,47,17.20
2017,05,29,08,48,17.20
2017,05,29,08,49,17.20
2017,05,29,08,50,17.20
2017,05,29,08,51,17.20
2017,05,29,08,52,17.20
2017,05,29,08,53,17.20
2017,05,29,08,54,17.20
2017,05,29,08,55,17.20
2017,05,29,08,56,17.20
2017,05,29,08,57,17.20
2017,05,29,17,45,22.70
2017,05,29,17,46,22.70
2017,05,29,17,47,22.70
2017,05,29,17,48,22.60
2017,05,29,17,49,22.60
2017,05,29,17,50,22.70
2017,05,29,17,51,22.70
2017,05,29,17,52,22.80
2017,05,29,17,53,22.80
2017,05,29,17,54,22.80
2017,05,29,17,55,22.90
2017,05,29,17,56,22.90
2017,05,29,17,57,22.90
2017,05,29,17,58,22.90
2017,05,29,17,59,22.90
2017,05,29,18,00,22.90
2017,05,29,18,01,22.80
2017,05,29,18,02,22.70
2017,05,29,18,03,22.60
2017,05,29,18,04,22.50
2017,05,29,18,05,22.50
2017,05,29,18,06,22.50
2017,05,29,18,07,22.40
2017,05,29,18,08,22.40
2017,05,29,18,09,22.30
2017,05,29,18,10,22.30
2017,05,29,18,11,22.20
2017,05,29,18,12,22.20
2017,05,29,18,13,22.10
2017,05,29,18,14,22.20
2017,05,29,18,15,22.20
2017,05,29,18,16,22.20
2017,05,29,18,17,22.20
2017,05,29,18,18,22.20
2017,05,29,18,19,22.20
2017,05,29,18,20,22.10
2017,05,29,18,21,22.20
2017,05,29,18,22,22.10
2017,05,29,18,23,22.10
2017,05,29,18,24,22.10
2017,05,29,18,25,22.10
2017,05,29,18,26,22.00
2017,05,29,18,27,21.90
2017,05,29,18,28,21.80
2017,05,29,18,29,21.70
2017,05,29,18,30,21.70
2017,05,29,18,31,21.70
2017,05,29,18,32,21.60
2017,05,29,18,33,21.60
2017,05,29,18,34,21.40
2017,05,29,18,35,21.30
2017,05,29,18,36,21.20
2017,05,29,18,37,21.10
2017,05,29,18,38,21.00
2017,05,29,18,39,20.90
2017,05,29,18,40,20.80
2017,05,29,18,41,20.80
2017,05,29,18,42,20.80
2017,05,29,18,43,20.80
2017,05,29,18,44,20.80
2017,05,29,18,45,20.80
2017,05,29,18,46,20.70
2017,05,29,18,47,20.70
2017,05,29,18,48,20.60
2017,05,29,18,49,20.50
2017,05,29,18,50,20.30
2017,05,29,18,51,20.20
2017,05,29,18,52,20.20
2017,05,29,18,53,20.20
2017,05,29,18,54,20.20
2017,05,29,18,55,20.20
2017,05,29,18,56,20.20
2017,05,29,18,57,20.10
2017,05,29,18,58,20.00
2017,05,29,18,59,20.00
2017,05,29,19,00,19.90
2017,05,29,19,01,19.90
2017,05,29,19,02,19.90
2017,05,29,19,03,19.90
2017,05,29,19,04,19.90
2017,05,29,19,05,19.90
2017,05,29,19,06,19.90
2017,05,29,19,07,19.90
2017,05,29,19,08,19.80
2017,05,29,19,09,19.70
2017,05,29,19,10,19.60
2017,05,29,19,11,19.60
2017,05,29,19,12,19.60
2017,05,29,19,13,19.60
2017,05,29,19,14,19.50
2017,05,29,19,15,19.40
2017,05,29,19,16,19.40
2017,05,29,19,17,19.30
2017,05,29,19,18,19.30
2017,05,29,19,19,19.30
2017,05,29,19,20,19.30
2017,05,29,19,21,19.20
2017,05,29,19,22,19.10
2017,05,29,19,23,19.10
2017,05,29,19,24,19.00
2017,05,29,19,25,19.00
2017,05,29,19,26,18.90
2017,05,29,19,27,18.90
2017,05,29,19,28,18.90
2017,05,29,19,29,18.90
2017,05,29,19,30,18.90
2017,05,29,19,31,18.80
2017,05,29,19,32,18.80
2017,05,29,19,33,18.80
2017,05,29,19,34,18.70
2017,05,29,19,35,18.70
2017,05,29,19,36,18.70
2017,05,29,19,37,18.60
2017,05,29,19,38,18.60
2017,05,29,19,39,18.60
2017,05,29,19,40,18.60
2017,05,29,19,41,18.60
2017,05,29,19,42,18.50
2017,05,29,19,43,18.50
2017,05,29,19,44,18.50
2017,05,29,19,45,18.50
2017,05,29,19,46,18.50
2017,05,29,19,47,18.40
2017,05,29,19,48,18.40
2017,05,29,19,49,18.40
2017,05,29,19,50,18.40
2017,05,29,19,51,18.40
2017,05,29,19,52,18.30
2017,05,29,19,53,18.20
2017,05,29,19,54,18.20
2017,05,29,19,55,18.10
2017,05,29,19,56,18.10
2017,05,29,19,57,18.00
2017,05,29,19,58,18.00
2017,05,29,19,59,18.00
2017,05,29,20,00,17.90
2017,05,29,20,01,17.90
2017,05,29,20,02,17.90
2017,05,29,20,03,17.90
2017,05,29,20,04,17.90
2017,05,29,20,05,17.90
2017,05,29,20,06,17.90
2017,05,29,20,07,17.90
2017,05,29,20,08,17.90
2017,05,29,20,09,17.90
2017,05,29,20,10,17.90
2017,05,29,20,11,17.90
2017,05,29,20,12,17.90
2017,05,29,20,13,17.90
2017,05,29,20,14,17.90
2017,05,29,20,15,17.90
2017,05,29,20,16,17.80
2017,05,29,20,17,17.80
2017,05,29,20,18,17.80
2017,05,29,20,19,17.80
2017,05,29,20,20,17.70
2017,05,29,20,21,17.70
2017,05,29,20,22,17.70
2017,05,29,20,23,17.70
2017,05,29,20,24,17.60
2017,05,29,20,25,17.60
2017,05,29,20,26,17.60
2017,05,29,20,27,17.60
2017,05,29,20,28,17.60
2017,05,29,20,29,17.60
2017,05,29,20,30,17.50
2017,05,29,20,31,17.50
2017,05,29,20,32,17.40
2017,05,29,20,33,17.40
2017,05,29,20,34,17.40
2017,05,29,20,35,17.40
2017,05,29,20,36,17.30
2017,05,29,20,37,17.30
2017,05,29,20,38,17.30
2017,05,29,20,39,17.30
2017,05,29,20,40,17.20
2017,05,29,20,41,17.20
2017,05,29,20,42,17.20
2017,05,29,20,43,17.20
2017,05,29,20,44,17.20
2017,05,29,20,45,17.30
2017,05,29,20,46,17.30
2017,05,29,20,47,17.30
2017,05,29,20,48,17.30
2017,05,29,20,49,17.30
2017,05,29,20,50,17.40
2017,05,29,20,51,17.40
2017,05,29,20,52,17.40
2017,05,29,20,53,17.40
2017,05,29,20,54,17.30
2017,05,29,20,55,17.30
2017,05,29,20,56,17.30
2017,05,29,20,57,17.30
2017,05,29,20,58,17.30
2017,05,29,20,59,17.30
2017,05,29,21,00,17.30
2017,05,29,21,01,17.30
2017,05,29,21,02,17.30
2017,05,29,21,03,17.30
2017,05,29,21,04,17.30
2017,05,29,21,05,17.40
2017,05,29,21,06,17.40
2017,05,29,21,07,17.40
2017,05,29,21,08,17.40
2017,05,29,21,09,17.40
2017,05,29,21,10,17.40
2017,05,29,21,11,17.50
2017,05,29,21,12,17.40
2017,05,29,21,13,17.50
2017,05,29,21,14,17.50
2017,05,29,21,15,17.50
2017,05,29,21,16,17.50
2017,05,29,21,17,17.60
2017,05,29,21,18,17.60
2017,05,29,21,19,17.60
2017,05,29,21,20,17.60
2017,05,29,21,21,17.60
2017,05,29,21,22,17.60
2017,05,29,21,23,17.60
2017,05,29,21,24,17.60
2017,05,29,21,25,17.60
2017,05,29,21,26,17.60
2017,05,29,21,27,17.60
2017,05,29,21,28,17.60
2017,05,29,21,29,17.60
2017,05,29,21,30,17.50
2017,05,29,21,31,17.50
2017,05,29,21,32,17.40
2017,05,29,21,33,17.40
2017,05,29,21,34,17.40
2017,05,29,21,35,17.30
2017,05,29,21,36,17.30
2017,05,29,21,37,17.30
2017,05,29,21,38,17.30
2017,05,29,21,39,17.30
2017,05,29,21,40,17.30
2017,05,29,21,41,17.30
2017,05,29,21,42,17.30
2017,05,29,21,43,17.30
2017,05,29,21,44,17.30
2017,05,29,21,45,17.30
2017,05,29,21,46,17.30
2017,05,29,21,47,17.30
2017,05,29,21,48,17.30
2017,05,29,21,49,17.30
2017,05,29,21,50,17.30
2017,05,29,21,51,17.30
2017,05,29,21,52,17.30
2017,05,29,21,53,17.30
2017,05,29,21,54,17.30
2017,05,29,21,55,17.20
2017,05,29,21,56,17.20
2017,05,29,21,57,17.20
2017,05,29,21,58,17.20
2017,05,29,21,59,17.20
2017,05,29,22,00,17.20
2017,05,29,22,01,17.20
2017,05,29,22,02,17.20
2017,05,29,22,03,17.10
2017,05,29,22,04,17.10
2017,05,29,22,05,17.10
2017,05,29,22,06,17.10
2017,05,29,22,07,17.10
2017,05,29,22,08,17.10
2017,05,29,22,09,17.20
2017,05,29,22,10,17.20
2017,05,29,22,11,17.20
2017,05,29,22,12,17.20
2017,05,29,22,13,17.30
2017,05,29,22,14,17.30
2017,05,29,22,15,17.30
2017,05,29,22,16,17.20
2017,05,29,22,17,17.20
2017,05,29,22,18,17.10
2017,05,29,22,19,17.00
2017,05,29,22,20,16.90
2017,05,29,22,21,16.80
2017,05,29,22,22,16.70
2017,05,29,22,23,16.70
2017,05,29,22,24,16.60
2017,05,29,22,25,16.60
2017,05,29,22,26,16.60
2017,05,29,22,27,16.50
2017,05,29,22,28,16.50
2017,05,29,22,29,16.40
2017,05,29,22,30,16.40
2017,05,29,22,31,16.40
2017,05,29,22,32,16.40
2017,05,29,22,33,16.40
2017,05,29,22,34,16.40
2017,05,29,22,35,16.40
2017,05,29,22,36,16.40
2017,05,29,22,37,16.50
2017,05,29,22,38,16.50
2017,05,29,22,39,16.50
2017,05,29,22,40,16.50
2017,05,29,22,41,16.50
2017,05,29,22,42,16.40
2017,05,29,22,43,16.40
2017,05,29,22,44,16.40
2017,05,29,22,45,16.30
2017,05,29,22,46,16.30
2017,05,29,22,47,16.20
2017,05,29,22,48,16.20
2017,05,29,22,49,16.10
2017,05,29,22,50,16.10
2017,05,29,22,51,16.10
2017,05,29,22,52,16.00
2017,05,29,22,53,16.00
2017,05,29,22,54,16.00
2017,05,29,22,55,16.00
2017,05,29,22,56,15.90
2017,05,29,22,57,15.90
2017,05,29,22,58,15.90
2017,05,29,22,59,15.90
2017,05,29,23,00,15.90
2017,05,29,23,01,15.80
2017,05,29,23,02,15.80
2017,05,29,23,03,15.80
2017,05,29,23,04,15.80
2017,05,29,23,05,15.70
2017,05,29,23,06,15.70
2017,05,29,23,07,15.70
2017,05,29,23,08,15.70
2017,05,29,23,09,15.60
2017,05,29,23,10,15.60
2017,05,29,23,11,15.50
2017,05,29,23,12,15.50
2017,05,29,23,13,15.40
2017,05,29,23,14,15.30
2017,05,29,23,15,15.30
2017,05,29,23,16,15.20
2017,05,29,23,17,15.20
2017,05,29,23,18,15.20
2017,05,29,23,19,15.10
2017,05,29,23,20,15.10
2017,05,29,23,21,15.00
2017,05,29,23,22,15.00
2017,05,29,23,23,15.00
2017,05,29,23,24,15.00
2017,05,29,23,25,15.00
2017,05,29,23,26,15.00
2017,05,29,23,27,15.00
2017,05,29,23,28,15.00
2017,05,29,23,29,14.90
2017,05,29,23,30,14.80
2017,05,29,23,31,14.70
2017,05,29,23,32,14.60
2017,05,29,23,33,14.60
2017,05,29,23,34,14.50
2017,05,29,23,35,14.40
2017,05,29,23,36,14.40
2017,05,29,23,37,14.30
2017,05,29,23,38,14.30
2017,05,29,23,39,14.20
2017,05,29,23,40,14.10
2017,05,29,23,41,14.10
2017,05,29,23,42,14.10
2017,05,29,23,43,14.10
2017,05,29,23,44,14.10
2017,05,29,23,45,14.00
2017,05,29,23,46,14.10
2017,05,29,23,47,14.10
2017,05,29,23,48,14.10
2017,05,29,23,49,14.10
2017,05,29,23,50,14.00
2017,05,29,23,51,14.00
2017,05,29,23,52,13.90
2017,05,29,23,53,13.90
2017,05,29,23,54,13.90
2017,05,29,23,55,13.80
2017,05,29,23,56,13.70
2017,05,29,23,57,13.70
2017,05,29,23,58,13.60
2017,05,29,23,59,13.50
